Flag for French Polynesia Weather past 2 weeks in Gambier Islands, French Polynesia

Now
74 °F

Mild.


Feels Like: 76 °F
Forecast: 76 / 78 °F
Wind: 18 mph from Southeast

Location: Rikitea


UV Index: 5 (Moderate)

Visibility: N/A


Pressure: 30.01 "Hg

Humidity: 73%

Dew point: 65 °F

Location of Gambier IslandsLocation

Historic Weather in Gambier Islands

°F

Gambier Islands temperature yesterday

Maximum temperature yesterday: 77 °F (at 9:00 AM)
Minimum temperature yesterday: 71 °F (at 6:00 AM)
Average temperature yesterday: 74 °F

Past Weeks' High & Low Weather Summary

 TemperatureHumidityPressure
High81 °F (Apr 3, 12:00 PM)94% (Apr 12, 1:00 AM)30.08 "Hg (Apr 12, 1:00 AM)
Low66 °F (Apr 13, 5:00 AM)59% (Apr 3, 12:00 PM)29.87 "Hg (Apr 7, 3:00 PM)
Average74 °F77%29.97 "Hg
* Reported Mar 31 7:00 PM — Apr 15 7:00 PM, Gambier Islands, Weather by CustomWeather, © 2014

Note: Actual official high and low records may vary slightly from our data, if they occured in-between our weather recording intervals... More about our weather records

Advertising

Historic Weather Conditions — Data for Previous 24 hours

 ConditionsComfort  
Time TempWeatherWind HumidityBarometerVisibility
7:00 PM
Apr 15
74 °FMild.18 mph73%30.01 "HgN/A
6:00 PM74 °FMild.17 mph74%30.00 "HgN/A
5:00 PM74 °FPassing clouds.17 mph73%29.99 "Hg12 mi
4:00 PM75 °FScattered clouds.16 mph73%29.98 "Hg12 mi
3:00 PM76 °FScattered clouds.16 mph70%29.98 "Hg7 mi
12:00 PM77 °FPassing clouds.15 mph70%30.00 "Hg9 mi
11:00 AM77 °FPassing clouds.15 mph71%30.02 "Hg22 mi
10:00 AM76 °FPassing clouds.15 mph66%30.03 "Hg22 mi
9:00 AM76 °FPassing clouds.15 mph65%30.03 "Hg22 mi
8:00 AM75 °FPassing clouds.17 mph73%30.02 "Hg22 mi
7:00 AM73 °FPartly sunny.17 mph82%30.00 "Hg19 mi
6:00 AM73 °FPartly sunny.12 mph78%29.97 "Hg7 mi
5:00 AM73 °FMild.12 mph78%29.96 "HgN/A
4:00 AM73 °FMild.10 mph78%29.96 "HgN/A
3:00 AM73 °FMild.9 mph78%29.95 "HgN/A
2:00 AM73 °FMild.7 mph81%29.95 "HgN/A
1:00 AM74 °FMild.13 mph82%29.96 "HgN/A
12:00 AM74 °FMild.10 mph77%29.98 "HgN/A
11:00 PM
Apr 14
74 °FMild.13 mph74%29.99 "HgN/A
10:00 PM74 °FMild.14 mph76%29.99 "HgN/A
9:00 PM75 °FMild.13 mph71%29.99 "HgN/A
Weather by CustomWeather, © 2014

See weather overview